Theta_e
312 312 312 312 311 310 309 309 308 308 307 307 307 307 306 306 306 306 306 306 307 307 307 307 306 307 307 307 308 309 309 309 310 310 311 312 312 313 314 316 320 321 321 320 318 317 316 315 321 333 343 343 341 343 344 348 352 355 363 361 360 367 362 358 360 358 358 355 355 357 356 357 356 355 355 355 353 353 353 351 350 350 350 351 351 352 352 352
312 312 311 311 311 311 311 310 309 309 308 308 308 307 307 307 307 307 306 306 306 306 307 306 307 307 307 307 308 308 309 309 309 310 312 313 312 312 314 316 318 321 321 320 317 317 315 317 330 342 344 341 343 345 345 350 352 357 365 361 364 370 360 356 358 357 358 358 357 356 355 356 356 356 356 353 352 352 352 350 349 351 351 352 352 352 352 352
312 311 312 311 311 312 312 311 311 310 309 308 308 308 308 307 308 309 309 309 308 307 306 306 307 307 307 307 307 309 309 310 312 315 317 313 312 312 314 317 318 319 320 319 318 316 317 327 340 344 342 341 344 346 347 351 352 354 362 367 370 366 357 356 358 357 358 358 357 356 355 356 356 356 356 352 353 355 352 350 349 350 351 352 352 352 353 353
311 311 311 311 312 312 312 312 312 311 310 309 309 308 308 307 308 310 311 312 311 310 308 308 308 307 308 307 308 309 308 316 322 322 321 315 313 312 313 316 318 320 319 320 318 315 323 334 338 337 338 340 343 345 346 351 353 354 360 370 368 360 358 358 357 358 356 357 357 356 356 357 357 356 355 353 356 359 353 350 349 350 351 352 352 352 353 353
311 312 312 312 312 312 312 312 312 312 311 310 309 309 309 308 308 310 312 313 312 312 310 310 309 308 308 307 308 308 309 324 329 324 324 321 317 313 312 314 316 320 319 319 317 317 327 335 332 332 336 339 342 343 344 349 352 354 358 360 357 355 360 359 357 358 356 358 358 358 359 359 358 355 354 354 358 358 352 349 349 349 350 351 352 352 352 353
312 313 313 313 313 313 313 313 312 312 312 311 310 309 309 309 308 310 312 313 313 312 311 311 310 309 308 307 308 307 312 326 329 325 327 323 319 315 312 312 314 317 319 319 316 319 329 333 329 329 336 340 341 340 343 349 350 358 359 352 352 354 358 359 357 358 358 359 359 358 359 358 357 356 354 355 356 356 351 349 349 349 349 350 351 351 350 351
313 313 313 313 313 313 313 313 312 312 312 312 311 309 309 309 308 310 311 313 312 312 312 311 310 309 308 307 308 308 311 319 323 324 325 322 319 315 312 312 312 314 318 318 317 324 331 330 327 329 338 340 339 337 342 349 349 361 365 352 351 352 352 357 359 359 359 358 358 358 358 358 358 359 356 354 354 354 351 349 348 348 348 349 350 349 349 349
313 313 313 313 313 313 313 313 312 312 312 312 312 310 309 310 309 310 311 312 312 312 312 311 311 309 308 308 308 310 311 316 321 322 324 323 320 317 313 312 311 314 317 316 321 333 333 329 328 332 339 339 338 336 338 350 350 357 363 352 351 350 349 356 360 359 358 359 359 358 359 357 356 357 356 355 354 353 351 348 348 348 348 349 349 349 349 349
313 313 313 314 313 313 313 313 312 312 312 312 312 310 309 309 309 310 311 312 312 312 312 311 311 309 308 308 308 315 318 322 326 326 327 327 324 323 320 315 311 314 317 316 327 335 332 332 333 335 340 338 338 336 336 353 354 353 355 350 350 349 351 357 360 359 359 359 359 360 360 358 355 356 358 357 353 352 351 348 348 348 348 349 349 349 349 349
314 314 314 314 313 314 313 313 312 311 312 312 312 311 309 309 310 311 311 312 312 312 311 311 310 309 308 307 311 322 327 327 329 329 329 328 327 327 325 320 313 314 317 318 329 334 333 338 338 336 339 337 335 334 336 347 348 349 351 349 351 351 355 359 359 360 360 359 360 361 361 359 356 357 359 357 353 351 351 348 348 348 348 349 349 349 349 349
315 315 315 314 314 314 314 313 312 311 312 312 312 311 309 309 311 311 312 313 311 310 310 310 309 308 308 308 313 324 329 329 330 329 329 328 325 324 324 321 314 315 317 320 331 336 336 339 337 335 335 334 333 331 332 332 334 347 350 350 353 353 357 359 359 361 359 359 359 359 360 357 354 359 360 358 355 351 349 349 348 348 348 349 349 349 349 349
315 315 315 315 314 314 314 314 313 312 311 312 312 311 309 310 311 312 312 312 310 308 308 308 308 308 308 308 312 321 326 328 329 326 327 327 323 319 319 318 315 315 316 321 333 338 337 337 334 332 332 332 330 327 329 326 330 347 349 349 353 353 356 356 359 360 358 360 358 356 358 355 355 359 359 358 358 352 349 349 348 348 349 349 350 349 349 349
316 316 316 315 314 314 314 314 313 312 311 312 312 311 309 310 312 312 312 312 309 308 308 308 309 308 309 310 312 319 322 323 325 324 326 326 322 317 315 317 316 315 315 321 333 337 335 334 331 330 331 330 328 326 328 325 328 346 350 349 352 354 356 354 355 357 357 360 356 354 357 356 357 358 356 357 358 353 350 349 348 348 349 349 350 350 350 349
316 316 315 315 315 314 314 314 314 313 312 312 312 310 309 310 312 312 312 312 309 309 309 309 309 311 313 313 316 322 321 321 323 323 326 325 322 317 315 317 316 314 315 320 331 334 330 330 329 329 330 328 327 326 327 325 326 339 344 347 352 355 356 353 352 354 357 359 354 355 358 356 359 358 355 356 356 354 351 349 349 348 349 349 350 350 349 349
316 316 315 315 315 314 314 314 314 313 312 312 312 310 309 311 312 313 312 312 310 310 310 311 314 317 317 316 319 324 322 323 324 324 325 325 322 318 316 316 315 314 315 319 327 329 327 327 327 328 329 327 326 325 327 328 327 331 333 339 350 355 355 355 353 354 358 359 355 357 359 358 360 359 356 356 355 354 352 350 349 348 349 349 349 349 348 348
315 315 315 315 315 315 314 314 314 314 313 312 311 310 310 311 312 313 313 312 312 312 311 314 319 321 319 318 319 323 322 322 325 324 325 325 322 318 317 317 317 316 317 321 326 328 327 327 328 327 327 326 326 327 329 328 329 333 331 334 346 353 353 354 353 352 357 358 356 359 362 362 363 359 356 355 354 354 352 351 349 347 349 349 349 349 348 348
315 315 315 315 315 316 314 314 314 313 313 312 311 310 310 311 312 313 314 313 312 311 311 313 317 321 321 319 320 322 323 323 323 323 324 325 323 319 319 320 319 320 320 324 326 326 326 327 326 326 325 326 326 327 327 324 325 330 329 331 344 353 352 352 354 352 354 357 357 359 362 363 363 359 355 353 353 353 352 352 350 346 348 349 349 348 348 348
315 315 315 315 316 316 315 314 314 314 313 311 310 310 312 313 315 315 315 315 315 314 315 313 315 322 324 319 321 322 323 324 322 323 323 325 324 320 321 321 321 322 322 323 324 324 325 325 324 326 326 325 325 326 324 324 323 324 326 327 338 351 351 351 354 353 353 357 358 358 359 363 361 359 356 354 353 353 354 355 351 347 347 348 348 348 347 347
315 315 315 315 316 317 316 314 314 314 312 312 313 314 317 319 321 322 319 318 319 320 322 318 317 326 325 320 322 322 323 323 321 324 324 325 325 321 322 323 322 321 321 323 326 325 325 325 324 325 326 325 325 325 323 325 324 324 326 325 333 347 351 352 354 354 356 358 358 356 358 362 361 359 358 356 354 354 356 356 352 348 346 347 348 347 346 345
315 315 314 315 315 316 317 317 314 313 312 314 317 319 320 320 323 326 322 319 319 320 321 320 319 322 322 321 323 322 323 322 322 325 325 326 325 322 323 324 323 322 323 326 326 325 324 325 325 325 326 325 324 323 323 323 323 323 324 323 325 334 344 351 354 355 356 357 357 356 358 361 360 359 358 358 357 356 356 355 354 350 346 346 345 345 345 344
315 315 314 314 315 315 317 318 315 313 314 317 319 320 320 320 321 322 320 319 319 318 318 318 319 320 320 322 321 321 323 322 323 325 325 325 325 323 323 324 324 324 325 325 324 323 324 325 326 325 326 325 323 323 322 322 322 322 322 323 320 324 338 349 354 355 354 357 357 357 359 359 358 357 356 358 359 357 356 355 354 351 348 345 343 344 344 343
315 315 315 314 315 316 317 318 316 313 314 316 318 319 318 318 319 319 318 318 318 317 317 317 318 319 320 321 320 321 323 323 323 324 324 324 324 324 323 323 324 325 325 324 323 324 324 324 325 324 323 323 323 322 321 321 321 322 322 320 319 330 345 351 355 355 352 356 357 356 359 358 357 356 356 358 360 358 356 355 353 352 349 346 346 345 344 343
315 315 315 314 315 316 318 319 318 316 315 316 318 319 318 318 319 319 319 318 317 316 316 317 318 318 319 320 320 321 323 324 323 323 324 325 324 324 322 323 325 325 324 324 324 324 323 324 325 322 321 322 322 321 320 320 319 320 322 317 321 339 351 349 353 354 350 353 355 355 358 359 358 356 356 358 358 357 356 354 353 353 350 348 349 348 344 343
315 315 315 314 315 317 319 319 319 319 319 320 320 319 319 319 319 319 318 318 317 317 316 318 318 318 319 320 320 321 323 323 323 323 324 324 324 323 322 322 324 324 324 324 324 324 323 324 323 322 322 322 321 321 320 319 317 319 320 318 325 344 350 348 352 352 351 352 352 355 355 357 359 357 357 356 354 356 355 354 352 352 352 351 350 350 347 345
315 315 315 314 315 318 319 319 320 320 320 320 319 319 318 319 319 319 318 319 319 319 318 318 318 319 319 318 319 321 321 321 322 323 324 324 324 323 322 322 322 324 324 323 323 323 323 323 322 322 323 321 321 321 320 319 317 317 320 320 324 339 347 348 350 350 351 351 351 353 352 353 357 358 357 353 354 356 354 354 353 351 352 351 350 350 350 347
315 315 315 314 315 318 319 320 320 319 320 320 319 319 318 318 319 318 319 322 322 322 319 317 318 319 318 317 318 319 320 320 320 322 323 324 324 323 323 323 323 323 324 323 322 323 322 322 322 322 322 322 321 321 321 321 318 316 322 323 321 333 346 347 346 346 347 349 350 349 351 350 351 356 356 352 355 358 355 354 354 353 352 350 349 350 350 350
316 315 315 314 315 317 318 319 320 319 320 321 319 319 317 318 319 318 322 324 322 320 317 315 316 316 316 316 317 319 319 319 319 320 322 324 324 323 324 325 324 324 324 323 321 322 323 322 322 322 322 322 321 321 322 322 319 318 325 325 325 336 346 346 345 343 343 348 348 346 350 351 349 354 356 352 355 358 357 356 355 354 353 350 349 350 350 351
316 315 315 315 314 316 317 319 320 320 321 321 320 319 317 319 319 317 324 324 319 316 316 315 315 316 315 316 316 318 319 318 318 320 322 324 324 323 323 325 325 324 324 323 322 324 324 322 323 322 322 321 321 321 322 322 320 322 326 324 325 333 340 345 346 341 341 347 347 344 345 352 350 352 355 353 355 358 358 357 356 355 354 351 350 350 351 351
316 315 315 315 314 315 316 318 320 319 319 320 319 319 319 320 320 320 325 324 317 315 316 315 315 316 316 316 316 317 318 317 318 321 323 324 324 323 323 324 324 324 324 323 324 325 324 323 323 322 322 322 322 322 323 323 322 324 325 324 326 329 331 341 343 338 340 347 346 342 340 350 352 351 355 355 355 357 356 356 356 355 354 353 351 351 351 350
316 316 315 315 315 315 316 317 319 318 318 319 320 322 321 321 323 325 324 320 315 315 316 315 315 316 317 316 316 317 317 317 319 322 324 324 324 322 322 323 322 324 325 323 323 323 322 323 324 323 324 323 322 323 322 322 323 323 326 326 327 331 330 334 338 337 339 341 343 341 339 347 350 350 354 356 355 355 354 355 356 355 354 354 352 352 351 350
316 316 315 316 316 316 316 316 317 318 318 320 322 322 322 323 328 328 321 315 316 318 315 316 317 316 317 316 316 317 317 317 320 323 324 324 323 321 322 324 324 324 325 324 323 323 322 323 325 325 324 325 324 324 324 323 323 323 329 330 327 335 338 333 331 331 333 335 337 340 340 340 345 349 351 354 355 354 353 354 355 355 355 354 353 353 351 351
316 316 316 316 316 316 317 317 317 318 319 322 322 321 326 331 329 327 322 316 318 318 315 317 317 316 317 317 316 317 317 317 319 322 323 323 323 323 324 327 326 323 324 325 323 323 325 324 325 324 324 326 325 327 327 326 326 324 329 330 325 330 334 331 329 327 332 337 334 338 340 339 348 355 350 350 353 353 353 353 354 355 355 355 354 353 352 351
315 317 316 316 317 317 318 319 318 319 321 323 321 322 332 333 325 324 323 317 316 316 315 317 316 316 318 316 316 317 317 317 318 320 321 321 322 322 323 327 326 322 324 326 321 320 324 324 325 324 324 327 325 326 325 324 328 325 326 328 325 326 328 329 330 328 330 335 332 336 342 342 353 358 350 348 350 353 354 353 355 355 354 354 353 353 352 351
314 316 316 317 318 317 318 320 319 319 321 322 322 326 330 326 321 323 322 317 315 316 316 317 316 316 317 316 317 317 316 317 317 318 320 320 320 319 320 322 321 321 322 322 320 319 320 323 327 325 324 327 327 327 328 327 327 327 329 332 328 329 331 330 332 331 330 332 331 334 342 345 352 352 348 349 347 350 355 353 354 355 354 354 353 354 354 352
314 315 317 319 319 318 318 320 320 321 321 320 328 335 328 320 320 322 318 315 316 317 317 317 316 316 316 317 318 317 316 317 317 318 319 318 318 318 319 318 318 320 320 319 322 321 319 323 327 324 324 327 327 328 329 328 326 328 329 328 326 332 336 331 333 336 333 332 334 339 344 347 351 350 347 349 350 351 353 352 354 354 354 354 354 355 355 354
314 314 316 319 320 320 319 320 320 320 320 322 330 335 327 319 321 321 317 316 317 317 318 317 316 316 316 316 317 317 317 318 318 319 318 317 318 318 318 318 317 319 319 320 324 321 319 324 325 323 326 327 326 327 327 326 330 331 326 326 331 336 335 328 328 334 330 329 336 343 348 347 348 352 351 352 355 353 351 352 353 354 354 354 355 356 356 355
314 314 315 318 320 320 319 320 321 320 321 323 328 331 327 320 319 319 317 317 316 318 320 318 316 317 316 316 317 317 317 318 318 319 319 318 319 318 317 318 317 317 317 319 322 321 319 323 325 324 325 325 323 325 326 325 331 332 324 326 333 331 332 331 328 329 328 332 340 345 348 347 347 353 354 353 355 354 352 353 352 353 354 355 355 356 356 356
314 315 317 318 318 320 320 320 321 321 322 324 328 332 329 322 318 317 317 317 317 319 320 319 318 318 317 318 319 317 317 317 317 320 321 320 319 317 316 316 316 316 316 317 320 321 321 322 325 325 323 323 324 323 325 325 327 329 326 329 330 325 328 332 328 325 325 336 348 348 345 345 347 350 352 353 354 353 353 354 352 352 353 353 354 356 356 356
314 318 321 320 318 319 319 319 320 321 321 325 331 332 325 320 319 317 317 317 318 321 320 319 319 319 319 319 319 318 317 317 318 321 322 321 319 317 315 315 316 315 316 318 319 321 323 322 324 327 323 323 326 324 324 325 325 327 326 328 330 329 331 330 328 328 329 338 349 347 344 347 350 351 352 352 351 349 350 351 351 350 350 351 353 353 354 355
316 319 321 320 319 318 317 318 319 320 321 326 332 329 320 319 319 317 317 317 317 321 320 319 321 322 320 318 318 318 318 319 320 322 321 319 319 318 315 315 316 315 316 318 319 321 326 324 321 325 324 323 324 324 324 326 326 326 325 325 325 327 328 327 327 328 331 341 348 346 347 350 349 348 348 348 348 346 347 347 346 346 347 349 350 350 351 353
318 322 322 319 319 318 317 318 318 319 322 324 326 323 318 319 318 316 317 317 317 319 319 320 324 324 320 319 319 318 319 319 320 321 320 318 318 318 316 315 314 315 318 320 319 320 325 325 322 323 322 322 323 323 323 324 325 325 325 325 325 326 325 324 324 326 331 341 344 345 348 349 345 345 345 345 345 345 345 345 344 345 345 346 347 347 348 350
320 325 324 318 318 319 317 318 318 318 321 323 322 319 318 318 317 316 317 317 317 318 318 319 321 321 319 319 319 319 320 320 319 320 319 317 317 316 315 315 314 315 318 318 317 319 323 325 324 324 323 322 322 323 323 323 323 325 324 325 326 328 328 324 323 329 336 339 340 344 348 348 344 343 343 344 344 344 344 343 342 342 342 344 345 345 347 349
320 324 321 316 318 318 316 319 322 320 319 320 318 317 316 316 316 316 316 317 317 318 319 318 317 319 319 318 319 319 320 321 319 320 319 318 317 315 314 315 314 314 317 317 316 319 324 326 325 326 329 328 326 326 325 323 324 326 324 324 324 323 327 328 328 336 342 342 344 347 349 348 346 343 342 342 343 344 343 341 341 340 340 342 343 344 346 347
323 324 320 316 317 317 317 321 325 324 321 319 315 314 316 315 315 316 316 316 317 317 320 320 318 319 318 318 320 320 321 322 320 319 321 320 318 315 315 315 314 314 314 315 318 320 322 327 329 329 331 333 332 330 327 324 324 324 322 322 323 322 326 331 335 344 344 339 343 348 348 347 345 344 343 342 343 345 343 341 340 339 339 340 341 342 342 344
324 326 323 318 317 317 318 319 320 322 321 321 319 316 316 316 314 315 315 314 315 316 319 320 317 318 318 318 320 319 320 323 322 321 322 322 319 315 315 315 314 315 314 317 322 322 322 327 332 333 332 330 330 329 327 325 324 322 321 321 321 323 328 330 336 346 345 340 342 346 346 345 344 344 345 344 344 344 342 341 339 338 338 338 339 340 340 341
326 329 324 319 318 316 316 315 316 318 320 325 325 317 314 316 314 315 315 314 315 315 317 319 317 318 319 319 320 319 318 320 323 324 322 323 322 317 315 316 315 316 318 319 320 324 329 331 333 339 339 334 333 334 332 328 323 319 319 320 320 322 330 335 339 343 344 344 346 344 343 345 343 343 345 345 344 343 341 340 339 337 337 337 338 338 338 339
326 328 322 319 319 316 315 316 315 316 317 321 321 315 314 316 314 315 316 315 316 316 317 319 317 319 321 321 322 322 319 320 322 324 323 323 323 319 315 315 317 318 319 317 317 325 332 328 325 331 334 330 330 332 329 325 321 318 318 319 319 321 327 332 335 337 341 345 346 344 343 343 343 342 343 344 344 342 339 339 338 336 336 336 336 336 337 337
325 325 322 322 323 319 317 316 315 316 318 320 319 315 316 316 314 316 317 315 315 316 319 322 320 320 322 325 328 327 325 326 326 326 326 324 324 324 321 318 318 318 318 316 317 322 326 323 320 322 323 321 323 324 322 321 320 320 319 318 318 321 326 328 330 338 346 348 344 342 342 342 341 341 340 341 341 339 338 337 336 336 336 335 335 335 335 335
322 324 324 325 327 323 318 315 315 318 322 327 325 318 316 316 315 316 316 317 319 318 319 321 320 320 320 325 333 331 326 328 327 325 325 325 325 326 326 324 322 319 318 318 317 318 322 325 324 321 320 320 321 321 320 318 319 321 320 319 318 324 332 335 335 339 345 345 341 340 343 343 342 340 339 338 338 337 337 336 335 335 335 334 334 334 334 334
319 323 325 327 330 328 321 317 319 322 325 327 325 319 315 315 314 313 314 316 319 319 318 319 320 320 318 320 325 324 321 325 327 325 323 323 325 325 324 323 321 321 323 322 319 317 319 323 324 324 325 323 321 322 319 317 319 320 319 320 320 323 331 339 341 340 341 341 339 340 343 343 340 338 337 337 337 336 335 335 334 334 333 333 333 332 333 333
317 323 326 330 334 332 325 320 320 324 325 325 324 320 318 318 315 314 315 315 316 317 316 319 321 321 320 319 319 317 315 317 321 319 317 318 320 321 322 322 320 322 325 324 321 319 319 323 326 330 330 326 321 320 319 318 320 320 318 320 322 321 323 333 341 342 340 340 340 340 342 341 339 336 334 335 335 334 334 333 332 332 332 331 331 330 331 331
316 322 325 329 334 332 327 323 321 321 321 320 320 319 318 318 316 317 319 316 314 316 317 318 320 322 322 321 319 317 314 313 315 314 313 315 315 315 318 318 317 320 324 324 322 321 322 324 326 327 329 327 321 318 321 322 322 320 319 319 323 326 326 332 339 340 338 338 339 339 340 339 337 334 333 333 332 332 332 331 330 330 330 330 329 329 329 329
Wind_Speed
18 17 16 15 14 14 14 13 12 11 11 11 11 11 10 9 8 6 5 5 5 6 6 7 8 8 7 7 7 7 7 7 9 12 12 6 8 11 13 16 16 14 11 10 12 13 14 15 15 14 13 10 10 12 9 12 14 6 2 1 2 2 1 2 1 2 5 6 6 7 8 10 10 10 10 12 9 9 15 20 22 20 24 27 32 38 35 36
17 17 17 16 15 14 14 14 13 12 11 10 10 9 9 9 8 7 6 5 5 5 6 7 7 8 8 7 7 7 7 7 10 12 8 4 12 16 16 18 18 17 15 12 12 14 15 16 16 15 13 10 9 10 6 13 14 5 2 1 2 2 2 2 3 5 5 7 9 9 9 10 10 13 14 12 9 10 14 20 26 27 26 29 36 36 34 37
17 17 17 16 16 15 14 14 13 13 12 11 10 9 8 8 8 7 7 6 6 6 6 7 7 8 8 8 7 7 7 7 9 7 4 6 11 16 17 19 20 19 17 13 11 13 14 16 16 13 12 10 10 12 7 12 11 4 4 1 4 3 1 2 6 6 7 12 12 11 12 13 12 12 14 16 13 10 11 17 24 29 31 34 36 35 36 36
18 17 17 16 16 16 15 15 14 13 12 11 10 9 8 8 8 7 7 7 7 7 7 8 8 8 8 8 7 6 6 6 2 3 3 3 6 12 16 18 20 19 17 14 11 13 14 14 13 11 11 10 12 12 8 12 10 5 6 3 5 3 1 4 7 9 13 14 13 13 12 12 12 9 13 18 12 6 12 21 27 34 37 37 37 37 37 36
19 18 18 17 17 16 16 15 15 14 13 11 10 10 9 7 7 6 7 7 8 9 9 9 8 8 8 8 7 5 4 2 3 7 5 3 3 8 13 17 19 19 18 16 14 15 15 15 12 11 11 10 10 7 8 15 13 5 5 6 6 5 2 6 12 15 16 12 12 13 10 10 10 11 15 12 6 7 15 24 33 40 40 40 39 39 37 36
21 21 20 19 17 16 15 15 14 14 13 12 10 10 9 8 7 6 6 7 9 9 10 10 8 8 7 7 7 3 1 2 6 6 4 5 4 7 11 14 18 19 19 18 18 17 17 16 12 12 11 8 6 5 8 16 15 4 4 6 8 9 4 6 16 17 16 13 11 11 10 12 11 12 14 7 6 13 19 28 37 39 39 40 40 38 38 36
21 22 21 20 18 16 15 14 14 13 13 11 10 9 9 8 7 7 7 7 9 9 10 10 8 8 7 7 5 4 6 5 6 6 4 5 6 6 10 13 18 20 20 20 20 20 19 16 13 14 9 5 6 6 7 15 15 4 2 6 8 11 8 9 17 16 16 15 11 13 13 12 10 8 8 8 11 14 22 34 37 37 37 38 39 37 36 35
20 21 21 21 19 17 15 15 14 12 11 10 9 9 8 8 8 8 8 9 9 9 10 10 8 8 6 6 4 4 8 6 6 5 4 5 4 4 8 12 17 19 21 22 22 22 18 15 16 14 6 4 7 6 6 11 10 5 3 7 9 10 10 13 17 16 16 15 13 16 12 10 11 7 4 7 12 16 27 36 37 37 36 36 37 36 35 33
19 20 21 20 19 18 17 16 15 12 10 8 7 7 7 7 7 7 9 10 9 9 10 9 8 7 5 5 3 4 4 4 6 5 4 2 1 1 3 8 15 19 21 22 23 21 17 16 16 13 6 7 9 8 7 8 6 9 7 10 11 10 13 16 16 16 16 15 16 13 9 12 15 9 4 5 13 18 29 37 37 36 34 33 35 35 34 32
19 20 21 21 20 19 18 17 16 13 10 7 6 5 5 6 7 8 9 9 9 9 9 8 7 6 5 4 2 2 3 7 5 5 2 2 4 6 6 6 11 19 22 23 26 23 17 17 14 10 8 9 8 8 9 6 3 12 12 10 11 12 16 18 16 16 14 14 16 11 7 10 11 6 2 7 15 20 30 38 36 36 33 32 33 34 34 32
18 20 21 21 21 20 18 18 17 13 10 7 5 4 4 4 5 7 8 9 10 10 8 6 6 6 5 5 6 3 6 6 3 2 1 4 6 8 8 6 9 17 22 24 27 23 17 18 11 6 6 6 5 8 7 1 7 12 17 9 10 13 14 15 15 16 13 8 14 14 8 5 4 1 5 11 16 22 33 37 35 35 32 31 34 34 32 31
18 19 20 21 21 20 19 18 17 13 10 7 5 3 3 3 4 6 6 8 9 8 6 4 4 6 5 8 11 7 7 6 4 1 3 4 7 6 8 8 9 14 21 26 26 22 17 15 9 9 8 6 6 6 4 7 8 15 19 8 9 10 7 7 8 15 13 6 15 18 10 2 1 4 9 15 16 23 32 35 34 34 30 31 33 33 32 31
17 18 19 20 20 20 18 17 16 14 11 8 5 3 2 2 4 4 5 6 8 7 5 4 5 5 6 8 9 8 6 6 5 6 6 4 6 5 10 10 9 12 19 24 24 20 14 9 7 12 14 11 7 5 8 13 6 13 12 6 9 6 3 4 4 4 6 9 20 16 5 4 5 7 12 13 13 19 29 31 32 33 30 31 33 32 31 31
18 18 18 19 19 20 18 16 16 14 12 8 5 3 2 3 4 4 4 5 6 6 6 5 5 6 7 7 7 7 6 7 9 12 9 5 5 4 8 10 11 13 17 22 22 15 11 9 10 14 14 11 7 7 9 8 2 7 7 4 6 4 3 6 7 4 2 10 23 10 1 6 6 8 13 13 13 15 23 27 28 32 30 30 32 32 31 31
18 18 19 19 19 19 18 16 14 13 12 8 4 2 4 4 4 4 4 3 4 5 6 6 6 7 10 8 7 8 6 7 10 11 8 8 6 4 7 10 11 14 16 20 20 14 11 10 14 15 12 9 6 5 4 4 2 2 5 4 3 3 3 5 10 13 7 12 23 9 1 4 4 9 16 17 19 16 17 21 24 30 30 29 32 31 30 29
17 19 19 19 18 19 18 15 13 12 11 7 3 4 5 5 5 5 5 4 4 4 4 5 5 7 8 6 7 9 8 9 9 9 9 10 7 3 8 10 10 12 15 18 16 11 10 10 14 12 8 5 4 1 4 4 3 2 3 5 4 5 5 4 7 14 12 10 17 10 2 3 3 10 17 19 23 19 17 17 20 29 31 31 32 31 30 29
17 19 20 20 19 19 17 15 13 11 8 5 3 4 6 6 6 7 7 6 5 4 5 6 7 9 8 4 5 7 9 9 8 10 12 11 8 5 10 11 10 12 14 14 11 11 12 11 10 6 2 2 1 4 4 2 3 3 1 4 4 8 8 6 4 11 12 9 14 9 3 4 3 10 19 21 25 21 19 19 19 27 32 33 33 30 30 31
17 19 20 20 19 19 18 15 13 11 7 4 3 4 6 8 8 8 9 8 6 5 7 7 6 6 5 4 4 7 8 8 7 11 13 11 10 9 10 10 10 12 11 10 10 13 13 8 6 3 1 3 1 3 3 4 4 1 2 3 2 7 8 9 7 10 15 13 13 9 5 5 2 8 16 22 29 24 20 19 18 24 31 33 33 30 30 31
17 18 19 19 19 19 18 16 14 10 6 4 5 6 6 9 9 7 8 8 7 5 5 6 7 3 6 9 12 10 5 6 6 8 11 12 11 12 10 9 11 13 11 5 5 10 9 3 5 3 2 5 4 5 6 7 2 3 2 1 3 5 6 8 7 11 18 12 9 9 6 6 6 8 10 16 25 23 18 17 15 21 29 34 33 31 30 29
16 17 18 18 18 18 17 17 14 9 6 6 8 8 7 9 5 2 6 11 12 11 13 13 12 14 16 14 14 8 6 9 8 9 10 12 13 15 14 12 13 12 8 4 3 8 7 4 3 5 5 7 7 7 8 8 3 4 6 4 2 4 6 9 7 10 15 8 4 7 6 7 8 8 8 12 16 15 14 13 13 18 25 32 32 29 30 27
16 17 17 17 17 16 16 16 12 7 6 7 9 8 7 7 4 5 11 15 17 17 19 19 15 20 22 16 16 12 8 11 10 10 9 12 12 13 15 12 9 6 6 7 4 4 6 3 5 7 7 8 7 7 8 7 5 5 6 5 5 3 4 11 12 12 12 5 2 5 6 6 7 7 7 9 10 11 14 13 13 17 21 27 27 25 29 28
15 16 16 16 14 15 15 14 11 6 4 6 8 6 6 8 7 8 11 13 20 21 18 16 15 20 21 16 14 11 9 9 10 11 10 12 11 10 12 8 5 4 5 6 4 3 4 3 7 9 8 8 7 7 8 8 6 5 6 4 3 2 2 6 9 10 8 3 4 6 5 4 5 5 6 8 8 10 14 14 13 18 21 24 22 23 28 27
14 15 16 15 13 12 12 12 9 6 5 5 5 5 6 6 7 9 12 10 16 19 13 10 13 17 15 12 9 7 8 5 7 11 11 12 12 12 12 7 3 5 4 3 5 4 3 4 10 11 8 8 8 9 8 8 5 5 5 3 2 3 5 5 6 10 5 2 6 7 4 4 5 4 4 7 7 6 9 10 10 14 20 23 20 22 26 25
14 15 15 15 13 11 9 8 7 7 8 6 7 7 6 6 6 9 13 7 7 10 8 11 12 14 13 8 6 5 6 5 6 11 14 13 12 11 10 8 5 4 5 5 6 6 5 9 13 12 8 9 9 10 8 6 5 5 6 5 4 6 9 9 10 9 2 4 8 9 5 1 5 7 5 4 3 4 7 8 8 10 14 19 18 19 21 21
13 14 15 14 12 10 8 5 6 9 10 9 11 11 8 6 6 8 10 4 4 6 4 8 9 11 10 5 5 5 2 5 8 11 16 15 12 9 6 8 7 3 6 7 6 5 7 13 12 8 8 9 8 9 8 7 5 4 7 9 8 9 9 9 11 9 3 2 7 9 4 2 4 8 8 4 3 5 9 11 12 13 13 14 17 18 18 17
12 12 13 13 11 9 8 5 6 10 8 8 11 12 10 7 7 10 8 3 2 4 1 3 5 6 4 5 10 6 1 4 9 12 17 15 13 9 4 5 6 5 7 6 4 3 6 12 9 8 11 10 8 8 8 8 6 4 7 8 9 12 11 10 12 10 4 3 10 8 4 1 4 6 8 7 7 8 9 10 15 18 17 18 21 20 20 18
11 11 12 12 10 9 8 7 7 8 7 7 9 10 9 7 9 12 6 3 2 3 1 3 5 3 3 7 11 7 0 3 5 10 16 15 14 11 6 3 3 4 3 2 2 3 6 10 7 8 11 9 7 7 7 8 6 5 7 5 8 13 15 15 14 10 4 3 6 7 3 4 4 5 7 9 10 10 10 10 13 19 23 26 29 25 23 21
10 11 10 10 10 9 8 7 7 8 7 9 10 7 5 5 8 9 3 2 2 2 0 3 3 2 4 9 12 10 3 4 1 7 16 18 13 10 7 4 3 4 3 2 3 6 7 10 9 9 9 7 6 8 9 8 5 6 8 5 7 10 13 15 12 8 4 4 3 7 3 4 2 3 6 8 10 11 13 14 14 19 26 31 33 29 26 24
10 10 8 8 9 9 9 7 7 8 7 9 10 6 5 8 9 5 3 2 3 2 2 2 2 2 6 7 9 11 7 7 4 9 17 18 13 8 4 5 4 4 4 5 5 6 7 11 10 8 7 7 7 10 10 7 6 7 6 5 4 5 7 10 9 6 4 3 4 10 7 3 2 2 6 7 8 11 12 12 13 20 27 30 33 33 29 28
10 9 7 7 8 10 9 7 7 8 9 10 10 10 12 10 4 3 2 1 2 2 2 1 3 3 7 4 3 7 5 7 6 10 15 14 13 8 3 5 5 2 3 3 5 7 9 13 11 5 6 10 10 11 11 10 11 6 1 2 1 0 2 5 6 5 5 2 7 12 11 6 1 2 6 7 6 10 11 9 11 17 24 28 33 34 31 31
10 9 7 7 9 10 10 7 5 7 9 8 10 14 13 6 2 4 1 1 2 2 0 2 3 1 4 4 1 3 3 4 4 10 9 7 7 4 1 1 2 2 3 4 5 6 6 7 5 5 9 11 9 7 8 10 10 4 2 2 1 3 3 3 2 5 5 5 6 12 12 7 3 4 8 10 5 7 12 12 13 17 22 28 31 32 33 34
10 10 9 9 9 9 9 7 5 5 7 8 13 14 7 3 3 1 1 2 2 2 1 3 3 1 3 3 1 3 2 2 3 6 5 3 3 2 2 2 2 2 3 3 3 5 4 5 4 6 10 7 6 2 4 4 3 3 4 4 4 1 2 2 2 3 4 4 5 12 12 4 5 4 7 15 9 7 13 15 17 20 25 29 30 31 34 35
9 11 9 9 9 7 5 5 6 6 6 10 15 10 3 5 2 3 3 2 2 2 1 2 2 3 3 2 1 3 2 1 4 4 3 3 3 2 3 4 4 3 2 2 2 3 3 6 4 3 6 5 6 4 3 2 1 3 3 4 4 3 2 2 3 1 2 4 2 11 12 2 4 3 5 9 9 9 15 18 21 25 28 30 30 31 32 33
9 11 9 8 7 4 2 3 5 6 6 11 13 6 5 4 2 3 3 2 2 3 2 4 4 2 3 2 2 2 2 1 2 1 1 4 4 3 3 3 2 1 3 0 2 1 1 5 4 2 4 7 6 5 7 4 0 2 4 5 4 4 4 3 3 2 3 4 1 7 7 1 2 3 8 3 9 10 14 16 19 23 26 29 29 28 30 31
7 10 10 8 5 2 1 1 4 5 7 10 8 5 4 2 3 3 3 3 3 5 4 8 8 4 2 2 2 2 2 1 1 3 5 6 4 4 4 5 8 6 1 0 2 1 0 4 5 6 5 6 6 5 6 5 1 3 2 5 3 4 4 2 4 4 4 3 1 2 2 1 2 4 7 4 10 10 14 18 18 20 21 23 24 24 27 30
6 9 10 9 6 4 2 1 2 4 6 6 5 3 1 2 3 2 3 3 2 4 5 8 8 6 5 4 6 8 6 5 4 3 5 5 5 6 5 4 8 9 5 1 1 2 3 4 5 9 6 2 1 4 5 7 3 3 2 2 5 4 6 3 3 2 3 4 0 2 2 1 1 2 7 5 8 6 9 15 18 20 21 21 22 23 25 28
5 7 10 11 8 6 5 3 3 3 4 4 4 1 3 3 3 2 3 4 3 5 5 5 4 3 3 4 6 9 7 5 4 3 3 3 4 6 5 4 8 9 6 3 1 1 1 3 6 5 4 6 8 4 4 7 7 3 0 4 4 1 4 3 0 2 3 3 0 3 2 1 1 1 5 3 4 4 6 11 13 16 18 16 16 19 22 25
6 6 9 10 7 7 8 6 5 6 3 3 2 3 2 2 6 6 5 5 3 5 5 2 1 1 2 3 3 7 7 4 2 2 3 2 2 4 5 4 8 13 13 8 2 2 1 1 6 3 3 8 9 4 1 4 5 6 3 3 1 1 2 1 1 2 2 3 1 3 3 1 1 1 2 2 3 3 4 11 11 11 13 14 14 14 15 17
8 9 5 7 7 8 11 9 9 9 2 3 1 3 1 2 7 9 9 6 3 5 3 1 1 1 3 3 0 4 6 5 3 2 2 2 1 3 6 5 6 14 18 11 3 2 2 2 4 5 5 7 5 4 1 4 3 3 2 3 1 3 3 3 3 3 4 3 2 2 2 2 2 2 1 3 6 7 4 6 11 11 14 16 18 17 15 14
8 8 2 7 8 9 12 12 11 8 2 0 3 3 3 3 6 12 14 7 2 3 1 1 2 2 2 4 3 3 5 5 4 2 2 2 1 3 7 6 4 10 15 9 5 3 3 3 2 6 7 4 2 1 1 2 3 3 1 2 1 1 1 2 2 1 4 4 4 4 1 3 3 1 3 5 6 6 5 5 11 14 18 20 21 20 17 14
6 5 1 5 8 10 13 13 8 4 2 2 3 2 3 3 4 12 15 9 5 4 3 2 2 2 1 4 4 3 4 4 4 3 2 3 2 2 6 8 5 6 8 6 5 4 2 3 2 4 5 3 2 4 4 4 4 3 3 3 4 2 2 2 3 2 3 4 4 5 3 1 2 1 4 5 5 5 5 5 13 17 19 22 21 21 19 16
5 2 2 5 10 12 11 7 3 3 3 3 5 3 3 4 3 10 15 12 8 4 3 2 1 2 2 2 3 3 3 3 4 3 2 2 2 0 5 11 10 6 4 2 3 4 1 2 2 3 4 4 7 8 6 6 6 3 2 2 2 2 3 4 4 3 2 4 3 3 2 2 3 3 3 5 7 8 5 6 14 18 19 22 22 21 19 15
7 6 5 4 8 11 8 2 2 1 3 3 4 2 3 4 3 7 10 9 7 3 2 2 1 3 2 2 2 2 2 2 2 2 1 1 1 2 5 12 12 8 5 1 3 5 3 2 2 4 5 4 6 6 7 7 4 2 2 1 1 2 3 5 4 3 4 3 3 4 2 1 3 3 5 8 10 11 9 11 15 17 19 22 23 21 20 17
11 10 6 1 5 8 5 2 2 2 2 0 2 3 5 5 5 5 4 6 6 3 3 2 1 3 2 2 3 2 2 2 2 1 1 1 1 3 6 11 10 6 3 0 2 5 4 0 2 3 4 5 6 7 9 9 6 3 4 4 4 4 3 5 2 3 4 2 3 5 3 1 2 3 6 9 10 11 13 14 15 16 18 21 22 21 20 18
10 7 7 7 4 6 3 1 3 2 2 3 3 2 3 3 4 6 5 5 6 5 3 3 2 2 3 3 3 2 2 3 1 1 2 1 1 2 5 8 7 6 7 6 4 2 0 1 2 3 2 1 2 2 2 4 4 3 5 7 7 5 2 5 3 4 3 2 3 5 4 3 2 3 4 5 7 11 13 13 14 17 20 21 21 20 20 19
6 3 7 11 6 1 1 5 9 7 3 3 3 1 1 1 2 9 10 5 6 9 5 4 4 2 3 4 2 2 2 2 1 1 1 2 2 2 5 7 6 10 13 11 8 3 2 1 2 4 3 3 3 4 4 2 3 5 7 10 9 6 4 5 4 3 4 4 3 1 8 12 6 4 5 3 5 10 13 14 15 16 19 22 22 22 21 20
4 1 3 7 6 3 6 12 15 9 3 4 2 2 3 2 1 7 9 5 6 9 6 6 8 3 2 4 3 2 2 1 3 3 0 1 2 2 6 7 8 14 14 10 10 5 3 3 3 2 0 2 4 6 5 4 4 4 7 10 9 7 7 6 3 4 7 6 2 1 10 16 10 8 8 5 5 8 12 16 16 17 19 22 23 23 22 21
5 1 3 5 3 1 3 8 9 7 5 5 3 1 4 6 4 4 5 5 7 8 5 6 10 6 2 4 3 2 3 3 4 4 2 3 3 3 6 7 9 16 13 8 8 5 4 1 2 1 4 6 4 4 5 5 3 4 7 9 11 9 6 5 1 3 5 5 6 6 9 12 11 11 9 6 6 10 16 19 18 18 20 21 22 22 20 20
6 2 6 9 4 3 5 6 5 7 5 4 3 3 4 6 5 3 4 5 6 7 5 3 6 9 8 6 4 4 4 2 1 3 2 3 5 3 3 4 7 13 11 6 5 3 3 1 4 2 3 6 8 7 9 9 6 5 8 10 12 10 6 7 4 4 6 9 14 14 11 8 5 6 9 10 13 17 20 22 19 18 20 22 23 22 19 19
8 4 8 11 8 7 12 11 5 6 4 4 3 3 2 5 4 3 4 5 3 6 6 5 5 8 8 9 7 5 4 2 2 1 2 3 3 2 1 1 3 7 8 4 4 5 3 2 5 4 3 4 7 8 12 12 5 3 8 10 10 9 9 10 8 9 10 11 15 17 14 6 0 4 10 14 17 20 21 21 20 19 20 22 24 22 19 19
5 4 7 8 5 7 12 10 4 4 3 2 2 2 2 4 4 2 4 6 6 4 4 5 6 6 6 9 8 5 7 6 2 5 6 4 1 1 1 3 3 2 5 3 3 4 3 2 4 4 4 3 6 8 11 11 3 6 10 11 9 5 5 5 5 7 10 12 13 13 11 4 2 8 13 14 16 19 20 21 22 21 21 22 24 24 22 21
5 3 6 5 1 4 9 7 3 4 2 2 1 4 4 5 6 6 3 4 9 11 9 8 8 5 5 7 6 6 9 11 9 10 10 8 5 5 4 2 3 4 1 1 2 3 3 2 2 3 3 3 7 7 8 7 4 5 6 7 6 4 7 5 4 7 13 15 12 8 7 5 4 8 11 12 14 17 19 22 24 25 24 24 24 24 23 22
Wind_Direction
352 351 347 345 343 340 339 339 340 340 342 344 348 352 355 357 357 356 346 333 315 303 301 302 312 316 307 300 299 298 286 269 267 262 262 245 195 193 186 186 181 181 186 170 169 177 182 186 185 185 192 204 229 239 225 203 190 158 103 45 300 289 293 262 274 130 131 146 154 152 150 137 142 153 135 115 117 124 125 138 143 138 139 143 147 148 151 155
350 349 347 345 342 338 335 332 332 333 334 337 340 345 350 351 352 353 353 347 324 309 302 303 311 314 309 303 302 299 297 282 273 268 264 209 192 193 183 185 183 180 188 182 170 176 183 178 173 176 193 217 228 230 208 180 179 158 110 114 258 226 197 241 115 118 135 143 142 143 147 137 145 154 138 124 139 140 122 132 135 132 138 142 146 149 155 158
348 348 346 344 342 338 335 330 328 327 328 332 332 337 344 346 347 346 349 345 331 314 301 304 308 311 310 305 309 306 307 298 283 276 237 206 203 198 186 183 183 183 188 187 175 176 176 165 165 178 199 225 233 233 210 172 179 175 140 134 248 208 223 213 133 136 150 144 135 141 154 144 154 158 140 142 153 154 147 149 141 137 144 147 149 153 156 158
348 347 346 345 343 340 337 333 328 324 323 325 326 330 336 341 341 339 341 340 331 318 305 305 305 311 309 304 312 311 322 324 297 97 114 204 204 202 193 183 182 183 181 182 182 181 175 163 176 203 211 229 237 240 220 179 180 174 158 186 219 164 119 188 161 152 149 147 140 146 155 144 159 161 142 151 150 153 169 160 149 145 150 151 153 156 159 159
347 347 346 346 345 344 341 337 331 326 321 319 320 323 330 335 333 333 335 335 329 319 310 306 306 310 305 303 311 312 342 11 127 108 78 65 138 188 191 187 183 177 173 177 183 183 186 185 203 232 231 237 232 232 231 197 178 161 199 208 179 136 112 170 158 150 147 148 140 144 148 139 151 144 144 160 146 149 168 159 151 150 152 153 156 159 161 162
346 346 346 347 347 346 344 340 335 330 324 318 315 317 324 327 327 328 325 330 326 317 314 313 311 307 301 302 306 304 306 139 136 137 110 69 95 159 176 187 185 176 171 175 181 183 192 199 217 238 231 236 220 216 231 200 181 162 236 216 160 144 159 153 148 148 148 147 145 149 144 137 136 134 150 174 138 141 157 156 151 151 152 155 159 159 160 163
348 347 347 348 348 348 345 341 336 333 329 320 313 314 320 323 324 321 319 326 320 312 313 316 315 306 300 300 300 292 266 217 147 147 141 85 83 141 166 181 183 179 174 175 180 182 193 203 219 232 227 230 220 225 221 193 188 179 180 204 165 151 170 157 149 151 153 152 153 154 144 139 133 128 153 161 142 135 148 154 151 150 150 152 157 159 161 162
352 352 351 350 349 348 345 342 338 335 332 322 312 310 315 320 321 318 318 321 316 309 312 317 316 304 298 297 300 295 268 225 171 156 125 102 87 124 164 182 184 181 177 177 177 177 190 206 219 228 224 224 233 255 226 187 194 210 165 178 173 165 171 157 150 151 152 151 151 148 136 130 131 116 105 141 145 136 146 152 151 151 150 150 154 158 161 161
356 355 355 354 352 348 345 342 339 337 333 322 310 306 310 317 318 318 318 320 317 311 312 316 310 298 291 279 286 298 256 178 166 153 104 82 272 252 208 197 191 184 180 179 175 176 191 204 215 221 218 244 254 271 227 169 188 217 183 163 169 167 161 153 150 150 152 152 149 141 122 129 136 125 86 145 155 142 148 153 153 153 153 154 156 158 161 161
358 357 356 356 355 351 347 342 339 340 336 324 309 302 307 313 314 317 320 322 320 317 318 315 302 287 275 251 238 288 165 143 149 143 107 311 277 260 252 231 200 190 183 179 178 180 188 190 200 218 240 257 251 260 219 166 237 211 173 149 156 147 146 151 150 151 152 157 155 139 120 134 134 132 141 168 159 147 150 154 155 155 156 157 159 161 163 164
358 356 354 354 354 352 348 343 340 342 338 327 312 303 308 311 310 317 322 323 326 327 322 308 294 278 266 248 229 202 130 139 147 138 232 307 296 258 239 230 207 196 186 182 182 180 178 181 195 246 268 263 270 284 236 244 314 194 162 132 135 123 126 147 151 152 150 164 163 133 98 93 64 24 172 157 152 152 153 154 156 158 160 161 161 165 167 168
357 353 351 350 350 350 349 343 339 339 337 327 317 309 310 302 300 313 318 325 336 339 331 315 297 277 272 268 239 187 134 149 145 189 258 319 309 245 213 209 204 201 191 186 182 178 180 184 213 259 271 291 316 310 272 317 313 174 156 126 132 120 120 154 153 157 152 162 161 131 95 80 335 260 178 156 153 156 156 155 157 160 162 163 164 168 170 171
354 352 349 348 347 347 347 343 337 334 332 327 326 322 307 282 292 315 318 328 344 348 342 327 310 301 291 270 225 171 165 187 180 223 237 310 310 220 198 194 188 198 195 190 182 178 189 197 233 255 270 289 300 293 290 304 290 169 161 132 132 130 134 107 67 174 165 163 166 144 111 189 211 216 175 158 156 156 158 157 159 162 163 163 166 171 172 175
353 352 350 349 345 343 344 342 335 331 329 331 335 322 280 273 289 319 318 330 352 352 349 336 330 329 299 257 191 172 205 201 193 209 217 272 283 188 188 187 179 190 195 194 186 182 199 221 253 264 273 279 284 296 301 305 296 166 181 150 128 148 157 116 120 199 249 177 180 170 89 191 204 183 161 158 157 156 162 162 161 163 165 166 168 173 174 176
352 352 353 353 347 343 343 341 334 330 331 335 339 297 269 276 294 317 315 319 343 338 342 334 329 328 301 271 194 177 198 194 189 196 212 249 245 173 176 176 168 177 188 194 192 195 212 240 265 261 261 275 299 324 340 325 330 159 168 151 152 161 155 151 166 183 177 182 194 202 52 182 218 169 158 166 166 161 166 169 167 165 167 169 169 175 177 177
353 354 356 357 353 349 346 341 335 332 336 340 326 276 272 282 293 307 306 301 318 321 330 326 320 320 302 272 196 183 198 200 188 189 211 233 232 171 158 162 157 167 183 192 194 211 231 263 270 252 243 270 285 42 37 351 331 352 134 144 175 158 148 175 199 201 190 182 200 212 120 158 233 162 154 171 175 164 163 180 183 169 167 170 171 177 180 179
354 355 358 358 357 355 351 347 341 342 345 333 290 278 287 292 296 305 299 292 300 285 282 291 293 297 286 238 188 202 215 213 202 196 202 218 225 168 148 164 168 166 181 195 211 240 255 261 247 235 227 204 204 94 65 327 275 298 111 129 167 161 157 163 182 210 204 197 201 201 161 182 226 152 150 171 180 170 170 190 193 174 169 171 173 177 181 182
355 356 358 358 358 359 356 353 350 353 347 320 305 308 306 311 308 294 288 292 297 289 282 262 255 296 286 238 283 282 248 225 201 190 193 205 214 188 160 164 173 172 187 211 232 242 251 245 188 166 247 202 203 111 143 217 211 231 102 96 136 159 170 176 172 193 196 204 200 182 174 192 184 148 150 164 175 175 182 191 185 174 171 171 174 177 181 184
354 357 358 357 358 358 359 358 356 358 357 4 5 352 344 342 329 285 278 281 271 289 299 249 216 264 286 275 299 306 249 202 186 190 197 196 201 202 179 161 180 186 188 206 232 222 220 195 154 160 194 210 225 182 198 228 207 7 347 97 139 168 191 189 182 183 181 188 191 174 176 171 157 166 152 154 170 180 190 186 166 166 170 171 175 178 182 187
351 356 359 358 356 354 358 359 359 10 38 51 28 16 11 359 352 290 298 286 279 296 298 278 252 260 276 286 309 309 188 184 205 207 198 192 195 199 189 177 185 189 187 179 211 211 184 126 178 199 194 209 229 212 220 243 260 318 303 300 228 195 192 184 184 179 170 166 183 170 157 158 163 170 153 146 163 178 193 185 157 159 166 171 176 178 183 188
349 354 358 358 356 352 355 359 5 28 57 51 33 23 11 359 1 339 323 304 303 307 295 290 274 269 277 287 311 306 213 187 198 198 189 194 192 189 189 182 174 184 210 195 177 187 164 147 213 213 208 209 225 234 237 248 254 265 264 285 289 257 191 179 173 171 167 143 138 153 133 153 166 158 154 148 152 175 195 187 163 162 165 170 175 176 181 182
346 350 357 358 356 351 353 2 13 22 27 34 24 20 23 14 10 353 335 308 305 306 295 291 279 274 279 281 302 298 231 190 188 195 192 191 183 180 185 174 163 192 220 193 149 143 164 202 230 218 214 213 227 243 250 253 242 246 251 265 295 308 99 142 153 166 175 137 138 154 130 140 155 145 149 160 169 184 195 196 181 172 169 169 170 170 175 173
343 347 354 359 358 352 353 3 14 10 360 1 345 1 33 20 11 354 335 303 295 302 290 267 267 271 273 280 294 261 214 180 185 191 187 186 179 178 177 159 167 196 207 179 143 155 186 226 228 221 211 208 228 238 246 263 248 229 242 244 237 173 119 111 162 184 188 112 141 140 106 115 131 136 156 175 182 166 178 204 206 188 177 173 169 166 172 169
341 345 351 359 0 354 356 3 10 360 346 342 337 351 359 348 9 352 332 307 282 298 264 233 253 261 263 289 296 236 184 172 203 189 186 191 176 171 181 177 174 188 210 196 158 163 215 231 217 213 214 203 217 232 228 243 253 237 223 203 188 175 157 157 174 180 139 77 130 119 77 93 152 169 188 183 184 147 157 182 205 216 197 179 173 169 173 172
338 343 348 356 359 358 0 4 1 348 346 0 3 0 352 344 9 348 334 330 283 297 257 223 239 250 258 271 244 236 171 200 228 198 190 193 176 170 193 186 176 195 215 206 180 178 233 242 219 204 229 216 210 230 220 209 232 253 231 210 187 174 173 168 158 151 108 97 165 142 101 263 202 185 187 174 187 184 177 176 182 212 223 194 186 184 181 176
333 340 347 352 356 0 1 358 350 343 351 12 6 0 358 358 352 329 329 15 307 287 268 194 199 229 239 206 217 232 310 246 243 213 197 193 189 188 193 187 180 199 204 200 197 186 234 242 218 196 223 224 216 232 224 202 206 245 237 211 183 174 173 167 159 160 160 180 194 183 123 171 226 206 185 174 188 191 188 187 183 194 209 205 202 201 195 188
326 335 345 348 350 357 357 352 352 353 356 354 346 346 350 352 336 325 332 47 334 290 296 163 173 213 188 183 199 195 84 299 257 221 202 196 200 197 202 225 187 203 209 160 203 227 230 232 218 201 215 222 220 235 230 196 187 237 241 198 164 169 168 169 174 182 188 125 178 203 123 109 224 221 176 166 182 192 191 195 188 187 195 203 209 211 206 201
319 328 341 344 340 346 351 347 352 1 352 336 338 346 358 344 324 329 22 94 326 317 45 165 191 260 188 186 195 198 250 342 8 216 204 199 200 190 200 224 200 249 279 120 214 252 231 222 212 192 202 218 215 225 224 194 188 236 238 211 167 167 174 177 182 189 172 99 153 213 160 103 248 222 146 158 181 197 200 197 189 184 191 200 207 213 211 207
311 319 333 338 328 332 340 334 335 351 351 343 349 357 348 328 320 338 88 103 334 294 175 180 232 215 178 187 212 220 255 308 284 201 191 193 199 191 207 219 205 264 264 178 203 256 250 238 224 185 185 215 222 230 221 197 216 235 232 228 189 166 179 180 185 182 136 108 192 208 183 134 244 198 147 171 196 206 207 200 190 184 190 197 202 209 211 207
298 307 321 325 318 325 332 327 321 335 348 352 352 345 333 323 329 41 58 47 330 258 187 209 252 184 163 164 246 227 231 279 252 172 171 187 200 210 240 224 206 266 286 236 234 252 256 258 250 206 189 199 208 230 225 210 226 239 286 283 274 66 141 156 178 157 129 197 218 205 189 153 199 215 175 191 207 196 192 193 193 187 189 195 199 204 208 207
286 294 302 307 311 316 324 338 343 339 346 351 345 341 337 331 72 80 34 350 310 262 145 249 253 156 165 165 238 213 187 263 215 147 165 193 193 218 320 241 232 345 339 308 291 279 267 265 266 244 224 196 186 226 236 226 224 213 57 54 32 340 4 48 145 150 159 221 221 198 185 162 200 230 200 208 209 174 180 187 188 185 187 194 198 200 205 209
274 278 286 297 301 297 309 336 8 3 357 353 344 342 349 33 49 88 240 338 320 275 287 247 232 203 211 178 201 218 160 251 218 147 171 176 151 206 212 174 161 38 330 276 288 318 298 260 249 256 250 202 155 203 268 272 233 128 76 73 85 351 354 4 243 181 188 234 213 181 169 171 232 246 214 208 197 170 183 188 184 182 186 193 197 199 204 208
265 267 279 288 287 281 299 344 18 18 8 354 347 346 52 79 31 268 273 320 301 265 307 300 254 210 185 131 268 246 131 167 216 182 167 119 103 235 231 206 160 135 225 259 317 346 329 288 270 269 268 205 163 172 196 264 298 133 140 117 121 148 137 234 244 173 198 246 194 157 157 200 252 313 302 214 186 177 183 183 183 183 186 191 193 198 202 206
265 263 273 273 269 264 284 356 14 13 1 352 352 9 65 55 294 285 299 272 284 286 330 2 328 241 160 164 228 212 131 149 198 146 70 71 48 342 333 330 336 183 186 345 335 279 299 294 275 256 242 188 169 173 165 164 256 204 177 139 140 166 154 196 212 159 197 226 86 135 157 250 201 282 316 213 161 169 173 175 181 182 187 191 191 195 199 204
275 261 261 257 248 213 190 355 356 4 358 350 3 51 63 18 274 302 308 273 320 325 359 20 12 24 33 299 307 33 89 136 353 38 56 64 49 356 12 19 358 359 61 55 280 257 313 265 276 303 272 172 168 200 154 117 308 260 151 119 158 190 160 170 203 180 166 168 40 94 152 1 179 261 325 80 129 147 158 162 170 178 185 187 189 195 199 203
291 258 253 249 235 200 158 159 292 343 352 360 34 55 337 263 230 251 300 293 335 353 11 20 21 27 4 345 1 360 22 51 16 41 64 60 54 20 15 33 13 16 41 24 281 15 3 272 291 321 318 112 133 237 162 128 178 280 31 169 218 185 138 133 245 250 106 132 58 21 98 67 156 294 342 52 111 132 151 153 160 171 178 182 187 194 199 202
306 259 250 244 222 190 181 188 227 280 330 34 67 342 248 245 259 260 318 331 12 43 46 32 12 16 0 14 12 347 2 37 16 35 40 9 50 27 360 6 13 14 18 13 336 172 62 274 286 320 338 336 340 315 194 162 161 151 273 240 240 162 121 113 226 338 62 124 80 16 54 76 99 326 327 8 106 124 135 135 143 156 162 167 174 185 195 200
321 293 257 230 193 179 193 198 221 243 283 48 33 303 224 226 296 316 344 344 29 56 63 73 6 10 34 38 357 339 4 26 0 54 49 5 57 45 13 353 354 356 352 358 17 230 93 320 286 327 0 313 330 27 176 225 176 157 199 241 150 171 224 137 171 193 108 119 100 14 355 344 128 207 284 355 36 22 110 119 115 116 118 116 121 140 164 179
327 322 280 199 181 195 195 190 209 223 259 34 310 301 268 248 301 324 340 346 62 72 69 112 65 40 45 62 5 340 22 37 10 33 53 18 1 14 21 4 340 347 346 357 50 287 18 95 272 311 345 312 328 70 151 257 222 177 287 316 110 166 195 164 181 175 129 138 141 65 356 273 244 243 296 31 18 353 352 92 94 86 85 88 95 105 121 143
334 329 288 172 180 196 180 172 190 197 168 176 220 255 282 292 313 323 333 343 77 79 102 197 60 55 27 50 60 7 26 41 25 25 33 23 348 336 4 11 347 338 338 357 52 347 2 78 290 309 340 340 357 58 203 219 201 192 285 299 257 263 233 177 219 166 122 141 144 124 187 263 268 253 54 42 37 18 352 53 77 74 74 79 84 87 97 112
347 334 309 150 169 184 168 161 176 174 142 251 244 245 292 305 327 335 347 15 67 81 109 138 93 102 51 39 42 20 33 33 18 31 26 18 44 356 349 356 350 335 338 2 29 356 0 60 340 311 337 338 280 290 286 261 239 193 156 204 221 208 170 175 273 300 84 118 145 149 173 252 329 60 91 68 45 27 2 54 78 73 71 74 75 77 84 92
5 318 268 148 170 190 179 164 181 162 159 251 239 221 331 335 350 354 358 18 43 70 102 104 106 89 68 59 34 27 60 41 2 33 58 44 66 238 338 359 4 8 21 7 313 314 326 83 25 301 290 270 269 285 293 273 253 208 159 194 196 164 140 150 215 249 58 80 111 102 108 113 47 41 100 86 58 48 28 49 73 74 72 74 75 77 80 85
345 306 271 179 187 201 192 212 316 179 191 232 218 187 27 15 17 9 0 7 16 17 44 50 114 81 70 122 86 57 76 49 5 30 79 83 19 317 354 14 13 15 33 32 309 330 339 79 33 313 292 295 297 320 349 354 10 36 341 354 22 258 174 145 177 173 103 100 115 84 68 134 86 77 120 103 78 81 85 75 73 72 72 78 82 83 83 81
339 315 290 232 220 210 180 208 266 257 260 42 85 66 51 38 25 25 4 350 358 6 25 15 66 96 103 123 97 123 148 88 46 10 45 123 293 336 13 21 18 20 28 289 279 339 346 37 61 13 343 347 349 360 2 359 19 22 309 327 335 287 163 130 105 72 93 182 150 120 123 156 87 96 122 116 105 105 101 95 95 90 82 82 83 84 86 85
349 327 326 348 294 227 231 245 183 140 21 52 67 67 59 28 30 45 21 346 4 18 5 329 341 93 113 104 80 70 107 115 122 336 17 37 280 326 4 9 16 12 347 320 298 313 52 173 111 98 89 43 23 6 337 329 339 319 307 336 341 325 87 124 112 66 98 169 119 117 135 111 82 93 103 113 122 117 107 100 101 99 95 91 87 84 86 87
12 352 339 351 355 227 347 48 78 72 41 60 56 31 59 261 12 35 24 4 14 11 353 340 353 37 90 89 91 56 61 113 108 74 51 3 296 285 345 356 13 10 0 359 3 29 120 47 74 122 154 169 182 222 229 264 302 306 331 346 341 338 50 97 109 107 146 133 60 88 142 131 138 144 124 129 131 125 121 115 108 102 100 97 94 91 89 89
18 53 357 346 353 27 47 56 64 59 39 68 65 327 23 63 58 30 23 19 22 15 5 7 9 13 127 92 92 85 45 27 31 38 45 342 282 292 359 9 15 13 13 18 16 35 95 20 21 102 312 250 216 235 260 292 290 308 344 349 346 360 45 56 67 145 147 119 55 225 142 135 153 159 150 172 163 133 124 119 117 114 108 102 97 92 88 86
12 343 3 355 323 290 33 50 70 72 49 56 67 358 41 57 57 36 16 3 15 23 26 19 14 16 73 95 108 82 44 43 19 359 344 6 359 358 7 6 12 13 13 16 15 47 116 11 318 54 356 329 316 305 316 327 322 342 357 359 354 2 59 83 86 151 140 127 141 154 135 132 147 152 155 176 156 126 120 120 122 120 113 107 99 92 87 84
15 325 337 356 346 285 339 6 80 95 59 46 48 26 55 70 56 40 25 7 356 9 33 68 31 25 34 51 87 83 44 66 16 342 347 19 14 36 23 338 355 11 13 16 7 31 107 329 321 35 24 340 345 351 343 339 339 351 1 9 4 7 65 90 77 85 91 113 128 126 113 108 129 157 164 161 140 127 124 122 119 115 110 105 99 94 90 87
22 1 334 344 346 338 351 6 68 100 46 33 52 15 38 79 62 32 41 48 13 349 17 56 51 46 49 46 61 69 27 74 130 352 21 45 15 42 77 271 289 353 8 12 341 357 41 331 323 32 56 339 346 358 344 332 328 17 10 8 8 17 51 72 85 89 84 102 120 119 114 104 62 137 141 149 142 130 124 119 113 110 107 102 98 95 95 95
41 42 358 344 335 347 358 2 46 98 40 20 66 17 25 69 66 43 36 52 64 33 17 54 53 50 52 42 46 39 6 16 23 337 355 20 342 266 201 210 202 359 2 359 336 348 21 342 333 42 64 336 336 355 343 327 342 55 18 357 359 29 76 88 108 117 112 116 119 116 115 127 187 126 123 137 140 128 121 118 114 111 107 103 100 98 98 100
70 74 21 14 327 352 4 348 352 89 117 235 105 77 75 73 60 61 49 17 35 39 40 63 69 58 45 33 15 354 354 350 336 338 348 342 337 0 344 266 144 110 37 355 0 340 0 25 8 48 69 320 319 342 344 341 28 46 353 333 360 70 127 107 82 124 134 134 134 130 126 134 135 118 117 127 128 122 123 122 118 116 112 107 105 104 101 100